Terug naar catalogus

CP3

ActiefWetenschapSSO
NORAD 31129·PAYLOAD·🇺🇸 United States

Gelanceerd Apr 17, 2007 vanaf Baikonur Cosmodrome

Loading…

Volgende Passages (komende 24 uur)

TLE

VersSource: Space-Track

Epoch: Sep 14, 2026, 04:26 UTC

1 31129U 07012N   26257.18528552  .00000795  00000-0  14730-3 0  9993
2 31129  98.4638 239.6650 0082208 141.4528 219.2584 14.66113402 31779

Volg CP3 in realtime met AllMySat

Download on the App Store